CW9825 Weather Reports


time (UTC)temp
F
wind
direction
speed
knots
gust
knots
rain 1hr
in
rain 24hr
in
rain mn
in
humidity
%
barometer
mb
20260508025056 52 20 1.7 2.6 0.00 0.00 0.00 38 1007.6
20260508024618 53 19 0.9 2.6 0.00 0.00 0.00 38 1007.6
20260508024055 53 19 0.9 3.5 0.00 0.00 0.00 38 1007.6
20260508023555 53 18 1.7 3.5 0.00 0.00 0.00 38 1007.6
20260508023055 53 17 1.7 2.6 0.00 0.00 0.00 38 1007.6
20260508022556 53 17 0.9 2.6 0.00 0.00 0.00 37 1007.5
20260508022055 54 17 0.9 2.6 0.00 0.00 0.00 37 1007.4
20260508021604 54 17 0.0 2.6 0.00 0.00 0.00 36 1007.4
20260508021054 55 17 0.9 2.6 0.00 0.00 0.00 36 1007.3
20260508020554 55 17 0.9 2.6 0.00 0.00 0.00 36 1007.2
20260508020057 55 17 0.9 2.6 0.00 0.00 0.00 36 1007.2
20260508015554 56 17 0.9 3.5 0.00 0.00 0.00 35 1007.2
20260508015054 56 18 1.7 3.5 0.00 0.00 0.00 35 1007.1
20260508014556 57 16 1.7 3.5 0.00 0.00 0.00 33 1007.1
20260508014054 57 23 1.7 4.3 0.00 0.00 0.00 33 1007.0
20260508013552 58 12 1.7 7.0 0.00 0.00 0.00 32 1007.0
20260508013053 58 39 3.5 7.0 0.00 0.00 0.00 32 1007.0
20260508012553 58 5 2.6 7.0 0.00 0.00 0.00 32 1007.0
20260508012052 58 355 2.6 9.6 0.00 0.00 0.00 32 1006.9
20260508011601 58 343 4.3 9.6 0.00 0.00 0.00 31 1006.9
20260508011052 59 355 4.3 10.4 0.00 0.00 0.00 31 1006.8
20260508010552 59 328 2.6 12.2 0.00 0.00 0.00 30 1006.7
20260508010056 60 350 5.2 11.3 0.00 0.00 0.00 29 1006.7
20260508005555 60 329 7.8 11.3 0.00 0.00 0.00 29 1006.6
20260508005051 60 302 4.3 10.4 0.00 0.00 0.00 28 1006.6
20260508004559 60 327 4.3 10.4 0.00 0.00 0.00 29 1006.6
20260508004051 60 305 1.7 10.4 0.00 0.00 0.00 28 1006.6
20260508003551 61 298 3.5 9.6 0.00 0.00 0.00 28 1006.6
20260508003051 61 308 5.2 12.2 0.00 0.00 0.00 27 1006.6
20260508002551 61 303 4.3 12.2 0.00 0.00 0.00 28 1006.5
20260508002051 61 315 6.1 10.4 0.00 0.00 0.00 28 1006.6
20260508001551 61 316 6.1 10.4 0.00 0.00 0.00 28 1006.6
20260508001050 61 259 4.3 10.4 0.00 0.00 0.00 28 1006.6
20260508000550 61 316 5.2 11.3 0.00 0.00 0.00 28 1006.6
20260508000052 62 289 5.2 13.9 0.00 0.00 0.00 28 1006.7
20260507235550 62 287 6.1 18.2 0.00 0.00 0.00 28 1006.6
20260507235049 62 360 7.8 18.2 0.00 0.00 0.00 28 1006.6
20260507234549 62 258 6.1 13.0 0.00 0.00 0.00 28 1006.7
20260507234048 62 269 4.3 13.0 0.00 0.00 0.00 28 1006.6
20260507233548 61 346 2.6 13.0 0.00 0.00 0.00 28 1006.8
20260507233048 62 286 4.3 13.0 0.00 0.00 0.00 28 1006.8
20260507232547 61 293 4.3 13.0 0.00 0.00 0.00 29 1006.8
20260507232048 61 286 4.3 13.0 0.00 0.00 0.00 28 1006.9
20260507231546 61 327 3.5 15.6 0.00 0.00 0.00 28 1006.8
20260507231046 61 302 7.8 15.6 0.00 0.00 0.00 28 1006.9
20260507230548 61 332 7.0 15.6 0.00 0.00 0.00 28 1006.9
20260507225546 62 319 7.0 11.3 0.00 0.00 0.00 28 1007.0
20260507225044 61 306 3.5 13.9 0.00 0.00 0.00 29 1007.0
20260507224547 61 263 4.3 13.9 0.00 0.00 0.00 28 1007.2
20260507224042 62 273 5.2 15.6 0.00 0.00 0.00 29 1007.1
20260507223542 61 274 7.8 15.6 0.00 0.00 0.00 28 1007.0
20260507223042 61 329 9.6 14.8 0.00 0.00 0.00 28 1007.1
20260507222542 61 298 2.6 12.2 0.00 0.00 0.00 28 1007.2
20260507222040 61 287 6.1 10.4 0.00 0.00 0.00 29 1007.3
20260507221543 61 263 5.2 11.3 0.00 0.00 0.00 28 1007.3
20260507221039 60 300 4.3 11.3 0.00 0.00 0.00 29 1007.3
20260507220542 61 263 4.3 12.2 0.00 0.00 0.00 29 1007.4
20260507220041 61 270 6.1 13.9 0.00 0.00 0.00 29 1007.4
20260507215538 61 309 6.1 20.0 0.00 0.00 0.00 28 1007.5
20260507215037 61 266 7.8 20.0 0.00 0.00 0.00 29 1007.5
20260507214538 61 269 6.1 18.2 0.00 0.00 0.00 29 1007.6
20260507214036 60 315 5.2 12.2 0.00 0.00 0.00 29 1007.6
20260507213536 61 267 6.1 13.9 0.00 0.00 0.00 29 1007.9
20260507213034 61 323 7.0 13.9 0.00 0.00 0.00 29 1008.0
20260507212534 60 294 5.2 14.8 0.00 0.00 0.00 30 1007.9
20260507212033 60 336 7.8 14.8 0.00 0.00 0.00 30 1008.0
20260507211533 59 321 4.3 13.0 0.00 0.00 0.00 31 1008.1
20260507211033 60 279 5.2 13.9 0.00 0.00 0.00 29 1008.1
20260507210533 60 280 7.8 13.9 0.00 0.00 0.00 29 1008.1
20260507210035 60 283 5.2 16.5 0.00 0.00 0.00 30 1008.2
20260507205531 60 269 6.1 16.5 0.00 0.00 0.00 29 1008.2
20260507205031 60 323 8.7 16.5 0.00 0.00 0.00 31 1008.3
20260507204530 60 313 5.2 14.8 0.00 0.00 0.00 29 1008.4
20260507204029 60 340 5.2 14.8 0.00 0.00 0.00 29 1008.4
20260507203530 60 219 6.1 12.2 0.00 0.00 0.00 29 1008.4
20260507203040 60 309 5.2 17.4 0.00 0.00 0.00 29 1008.5
20260507202531 60 360 5.2 17.4 0.00 0.00 0.00 29 1008.6
20260507202026 60 319 10.4 17.4 0.00 0.00 0.00 29 1008.6
20260507201526 59 339 6.1 15.6 0.00 0.00 0.00 29 1008.6
20260507201025 60 136 5.2 15.6 0.00 0.00 0.00 29 1008.9
20260507200526 60 336 5.2 16.5 0.00 0.00 0.00 31 1008.8
20260507200023 59 337 9.6 16.5 0.00 0.00 0.00 30 1009.0
20260507195525 59 300 6.1 13.9 0.00 0.00 0.00 30 1009.1
20260507195022 60 287 6.1 12.2 0.00 0.00 0.00 32 1009.0
20260507194527 59 261 3.5 10.4 0.00 0.00 0.00 29 1009.0
20260507194024 59 319 6.1 11.3 0.00 0.00 0.00 32 1009.1
20260507193524 58 265 6.1 13.0 0.00 0.00 0.00 33 1009.1
20260507193021 58 256 6.1 16.5 0.00 0.00 0.00 30 1009.2
20260507192519 59 291 11.3 16.5 0.00 0.00 0.00 30 1009.2
20260507192018 58 243 4.3 13.0 0.00 0.00 0.00 31 1009.1
20260507191520 58 347 4.3 13.0 0.00 0.00 0.00 30 1009.2
20260507191017 58 273 6.1 13.0 0.00 0.00 0.00 31 1009.3
20260507190517 58 283 2.6 10.4 0.00 0.00 0.00 30 1009.2
20260507190019 58 281 4.3 13.0 0.00 0.00 0.00 33 1009.2
20260507185515 57 344 3.5 15.6 0.00 0.00 0.00 31 1009.4
20260507185016 57 273 7.0 15.6 0.00 0.00 0.00 31 1009.3
20260507184521 56 269 2.6 11.3 0.00 0.00 0.00 32 1009.1
20260507184014 57 296 3.5 19.1 0.00 0.00 0.00 33 1009.3
20260507183513 57 254 9.6 19.1 0.00 0.00 0.00 32 1009.4
20260507183014 57 254 11.3 19.1 0.00 0.00 0.00 31 1009.5
20260507182513 57 279 7.8 16.5 0.00 0.00 0.00 32 1009.4
20260507182013 57 281 2.6 13.0 0.00 0.00 0.00 32 1009.5
20260507181511 57 311 5.2 13.0 0.00 0.00 0.00 33 1009.6
20260507181013 56 236 4.3 14.8 0.00 0.00 0.00 34 1009.7
20260507180512 56 284 7.0 14.8 0.00 0.00 0.00 33 1009.9
20260507180017 56 330 5.2 13.0 0.00 0.00 0.00 35 1009.9
20260507175511 56 296 6.1 13.9 0.00 0.00 0.00 34 1009.9
20260507175008 56 234 6.1 13.9 0.00 0.00 0.00 35 1009.8
20260507174508 56 250 6.1 15.6 0.00 0.00 0.00 35 1009.9
20260507174010 55 269 5.2 15.6 0.00 0.00 0.00 36 1010.0
20260507173506 55 286 4.3 11.3 0.00 0.00 0.00 35 1010.2
20260507173011 56 308 1.7 14.8 0.00 0.00 0.00 36 1010.2
20260507172505 56 271 7.0 14.8 0.00 0.00 0.00 35 1010.3
20260507172003 56 329 5.2 13.0 0.00 0.00 0.00 37 1010.3
20260507171503 55 281 4.3 13.9 0.00 0.00 0.00 37 1010.4
20260507171002 55 270 6.1 12.2 0.00 0.00 0.00 37 1010.6
20260507170502 55 283 7.0 14.8 0.00 0.00 0.00 37 1010.5
20260507170105 55 252 7.8 14.8 0.00 0.00 0.00 36 1010.6
20260507170002 55 267 5.2 13.9 0.00 0.00 0.00 36 1010.6
20260507165559 55 333 6.1 13.9 0.00 0.00 0.00 37 1010.6
20260507165101 54 288 4.3 13.0 0.00 0.00 0.00 37 1010.7
20260507164559 55 269 5.2 12.2 0.00 0.00 0.00 38 1010.7
20260507164057 54 282 4.3 12.2 0.00 0.00 0.00 37 1010.7
20260507163557 53 269 3.5 12.2 0.00 0.00 0.00 36 1010.8
20260507163056 55 268 4.3 13.0 0.00 0.00 0.00 38 1010.9
20260507162557 55 88 3.5 13.0 0.00 0.00 0.00 38 1010.7
20260507162056 54 269 5.2 13.0 0.00 0.00 0.00 40 1010.9
20260507161602 53 263 6.1 13.0 0.00 0.00 0.00 41 1010.9
20260507161053 53 281 5.2 14.8 0.00 0.00 0.00 41 1011.0
20260507160553 54 282 6.1 10.4 0.00 0.00 0.00 42 1011.1
20260507160059 53 282 5.2 10.4 0.00 0.00 0.00 43 1011.1
20260507155549 53 279 4.3 7.8 0.00 0.00 0.00 45 1011.1
20260507155048 53 272 3.5 7.8 0.00 0.00 0.00 46 1011.2
20260507154547 52 281 2.6 6.1 0.00 0.00 0.00 48 1011.1
20260507154044 52 198 1.7 12.2 0.00 0.00 0.00 47 1011.2
20260507153543 51 281 6.1 12.2 0.00 0.00 0.00 48 1011.1
20260507153042 51 254 1.7 8.7 0.00 0.00 0.00 48 1011.1
20260507152541 51 246 3.5 10.4 0.00 0.00 0.00 49 1011.2
20260507152039 51 331 4.3 10.4 0.00 0.00 0.00 49 1011.2
20260507151538 51 249 5.2 12.2 0.00 0.00 0.00 49 1011.2
20260507151036 50 291 4.3 7.8 0.00 0.00 0.00 50 1011.3
20260507150535 50 278 2.6 10.4 0.00 0.00 0.00 52 1011.4
20260507150039 49 199 1.7 12.2 0.00 0.00 0.00 54 1011.4
20260507145533 48 274 5.2 10.4 0.00 0.00 0.00 54 1011.4
20260507145033 48 263 4.3 9.6 0.00 0.00 0.00 55 1011.4
20260507144531 47 275 2.6 8.7 0.00 0.00 0.00 56 1011.5
20260507144029 47 311 2.6 8.7 0.00 0.00 0.00 57 1011.7
20260507143526 46 257 0.9 6.1 0.00 0.00 0.00 59 1011.6
20260507143026 45 249 1.7 6.1 0.00 0.00 0.00 62 1011.7
20260507142524 44 277 1.7 6.1 0.00 0.00 0.00 65 1011.8
20260507142027 42 250 2.6 5.2 0.00 0.00 0.00 68 1011.8
20260507141526 41 222 1.7 6.1 0.00 0.00 0.00 69 1011.7
20260507141020 40 221 0.9 7.0 0.00 0.00 0.00 70 1011.7
20260507140521 39 254 1.7 7.0 0.00 0.00 0.00 71 1011.9
20260507140017 39 231 0.9 5.2 0.00 0.00 0.00 71 1011.9
20260507135515 38 209 1.7 4.3 0.00 0.00 0.00 71 1011.9
20260507135014 38 262 0.9 5.2 0.00 0.00 0.00 72 1011.9
20260507134513 37 192 0.9 5.2 0.00 0.00 0.00 72 1011.9
20260507134011 37 221 1.7 4.3 0.00 0.00 0.00 72 1011.8
20260507133510 37 257 1.7 5.2 0.00 0.00 0.00 73 1011.8
20260507133011 36 255 1.7 5.2 0.00 0.00 0.00 73 1011.8
20260507132512 36 207 2.6 5.2 0.00 0.00 0.00 73 1011.8
20260507132007 35 198 2.6 5.2 0.00 0.00 0.00 74 1011.8
20260507131509 35 223 1.7 3.5 0.00 0.00 0.00 74 1011.8
20260507131005 34 186 1.7 3.5 0.00 0.00 0.00 74 1011.8
20260507130505 34 186 0.9 3.5 0.00 0.00 0.00 73 1011.8
20260507130005 34 186 1.7 3.5 0.00 0.00 0.00 73 1011.8
20260507125504 34 180 0.0 2.6 0.00 0.00 0.00 73 1011.8
20260507125108 34 175 0.9 3.5 0.00 0.00 0.00 73 1011.8
20260507124503 33 169 1.7 4.3 0.00 0.00 0.00 74 1011.8
20260507124002 32 161 0.0 2.6 0.00 0.00 0.00 76 1011.9
20260507123600 31 161 0.0 2.6 0.00 0.00 0.00 77 1011.9
20260507123059 30 161 0.0 1.7 0.00 0.00 0.00 77 1011.8
20260507122559 29 161 0.0 1.7 0.00 0.00 0.00 79 1011.8
20260507122058 28 161 0.0 0.0 0.00 0.00 0.00 79 1011.8
20260507121559 28 161 0.0 0.0 0.00 0.00 0.00 80 1011.9
20260507121058 27 161 0.0 0.0 0.00 0.00 0.00 80 1011.9
20260507120557 27 161 0.0 0.0 0.00 0.00 0.00 80 1011.7
20260507120055 27 161 0.0 0.0 0.00 0.00 0.00 81 1011.7
20260507115554 26 161 0.0 0.0 0.00 0.00 0.00 81 1011.7
20260507115054 26 161 0.0 0.0 0.00 0.00 0.00 81 1011.6
20260507114603 26 161 0.0 0.0 0.00 0.00 0.00 81 1011.5
20260507114051 25 161 0.0 0.0 0.00 0.00 0.00 81 1011.5
20260507113550 25 161 0.0 0.0 0.00 0.00 0.00 81 1011.5
20260507113050 25 161 0.0 0.0 0.00 0.00 0.00 81 1011.5
20260507112550 25 161 0.0 0.0 0.00 0.00 0.00 81 1011.4
20260507112052 24 161 0.0 0.0 0.00 0.00 0.00 81 1011.4
20260507111549 24 161 0.0 0.0 0.00 0.00 0.00 81 1011.4
20260507111048 24 161 0.0 0.0 0.00 0.00 0.00 80 1011.4
20260507110551 24 161 0.0 0.9 0.00 0.00 0.00 80 1011.4
20260507110048 25 161 0.0 1.7 0.00 0.00 0.00 80 1011.4
20260507105546 25 161 0.0 1.7 0.00 0.00 0.00 79 1011.4
20260507105049 25 161 0.0 2.6 0.00 0.00 0.00 79 1011.4
20260507104546 25 161 0.9 3.5 0.00 0.00 0.00 79 1011.5
20260507104045 25 161 0.9 4.3 0.00 0.00 0.00 79 1011.4
20260507103545 25 161 1.7 4.3 0.00 0.00 0.00 79 1011.4
20260507103048 25 162 0.9 4.3 0.00 0.00 0.00 79 1011.4
20260507102543 25 162 1.7 4.3 0.00 0.00 0.00 79 1011.5
20260507102043 25 163 0.9 2.6 0.00 0.00 0.00 79 1011.4
20260507101546 25 163 0.0 2.6 0.00 0.00 0.00 79 1011.5
20260507101041 25 163 0.9 3.5 0.00 0.00 0.00 78 1011.5
20260507100540 25 163 0.9 4.3 0.00 0.00 0.00 78 1011.5
20260507100040 26 165 1.7 4.3 0.00 0.00 0.00 78 1011.6
20260507095539 26 169 1.7 4.3 0.00 0.00 0.00 78 1011.5
20260507095038 26 163 1.7 2.6 0.00 0.00 0.00 78 1011.6
20260507094549 26 165 0.9 2.6 0.00 0.00 0.00 77 1011.6
20260507094036 26 165 0.9 2.6 0.00 0.00 0.00 77 1011.7
20260507093536 26 167 0.9 4.3 0.00 0.00 0.00 77 1011.7
20260507093037 26 167 1.7 4.3 0.00 0.00 0.00 77 1011.8
20260507092535 26 169 1.7 3.5 0.00 0.00 0.00 77 1011.8
20260507092035 27 170 0.9 2.6 0.00 0.00 0.00 76 1011.7
20260507091535 27 170 0.9 3.5 0.00 0.00 0.00 77 1011.7
20260507091035 27 171 1.7 3.5 0.00 0.00 0.00 77 1011.7
20260507090533 26 175 0.9 3.5 0.00 0.00 0.00 77 1011.8
20260507090032 26 177 0.9 3.5 0.00 0.00 0.00 76 1011.7
20260507085531 26 182 0.9 2.6 0.00 0.00 0.00 76 1011.8
20260507085031 26 182 0.0 2.6 0.00 0.00 0.00 76 1011.8
20260507084536 26 182 0.9 2.6 0.00 0.00 0.00 76 1011.8
20260507084029 26 183 0.9 2.6 0.00 0.00 0.00 75 1011.8
20260507083528 27 184 0.9 2.6 0.00 0.00 0.00 75 1011.8
20260507083027 27 184 0.0 2.6 0.00 0.00 0.00 75 1011.9
20260507082527 27 184 0.0 2.6 0.00 0.00 0.00 74 1011.8
20260507082125 27 185 0.9 2.6 0.00 0.00 0.00 74 1011.8
20260507081526 27 187 0.0 2.6 0.00 0.00 0.00 74 1011.8
20260507081023 27 187 0.0 2.6 0.00 0.00 0.00 74 1011.8
20260507080523 27 188 0.0 2.6 0.00 0.00 0.00 73 1011.7
20260507080021 28 188 0.0 0.0 0.00 0.00 0.00 73 1011.6
20260507075520 28 189 0.0 0.0 0.00 0.00 0.00 73 1011.7
20260507075020 28 189 0.0 0.0 0.00 0.00 0.00 73 1011.7
20260507074520 28 189 0.0 0.0 0.00 0.00 0.00 73 1011.7
20260507074018 28 189 0.0 0.0 0.00 0.00 0.00 73 1011.7
20260507073521 28 189 0.0 0.0 0.00 0.00 0.00 72 1011.7
20260507073018 28 189 0.0 1.7 0.00 0.00 0.00 72 1011.8
20260507072517 28 188 0.0 1.7 0.00 0.00 0.00 72 1011.8
20260507072016 28 188 0.0 2.6 0.00 0.00 0.00 71 1011.8
20260507071518 28 188 0.0 2.6 0.00 0.00 0.00 71 1011.8
20260507071014 28 189 0.0 2.6 0.00 0.00 0.00 71 1011.8
20260507070514 29 190 0.0 0.0 0.00 0.00 0.00 71 1011.8
20260507070020 29 190 0.0 0.0 0.00 0.00 0.00 71 1011.9
20260507065513 29 190 0.0 0.9 0.00 0.00 0.00 71 1011.9
20260507065015 29 190 0.0 1.7 0.00 0.00 0.00 70 1012.0
20260507064514 29 190 0.9 1.7 0.00 0.00 0.00 69 1012.0
20260507064008 30 190 0.0 2.6 0.00 0.00 0.00 68 1012.0
20260507063507 30 190 0.9 2.6 0.00 0.00 0.00 67 1012.1
20260507063007 31 190 0.0 2.6 0.00 0.00 0.00 67 1012.1
20260507062504 31 190 0.9 2.6 0.00 0.00 0.00 67 1012.1
20260507062103 31 190 0.0 1.7 0.00 0.00 0.00 66 1012.2
20260507061502 32 190 0.0 1.7 0.00 0.00 0.00 66 1012.2
20260507061003 32 190 0.0 1.7 0.00 0.00 0.00 66 1012.2
20260507060601 32 190 0.0 3.5 0.00 0.00 0.00 66 1012.2
20260507060101 33 190 0.9 3.5 0.00 0.00 0.00 65 1012.2
20260507055601 33 190 0.9 2.6 0.00 0.00 0.00 64 1012.2
20260507055101 33 193 0.9 2.6 0.00 0.00 0.00 64 1012.1
20260507054556 34 194 0.9 2.6 0.00 0.00 0.00 63 1012.2
20260507054054 34 196 0.0 1.7 0.00 0.00 0.00 63 1012.2
20260507053553 34 196 0.0 3.5 0.00 0.00 0.00 63 1012.3
20260507053102 35 196 0.9 3.5 0.00 0.00 0.00 62 1012.4
20260507052551 35 187 0.0 2.6 0.00 0.00 0.00 62 1012.3
20260507052051 35 188 0.0 2.6 0.00 0.00 0.00 61 1012.3
20260507051550 35 188 0.0 2.6 0.00 0.00 0.00 61 1012.5
20260507051049 36 188 1.7 4.3 0.00 0.00 0.00 61 1012.5
20260507050548 36 188 0.9 5.2 0.00 0.00 0.00 61 1012.5
20260507050047 36 207 2.6 6.1 0.00 0.00 0.00 61 1012.5
20260507045547 36 194 2.6 6.1 0.00 0.00 0.00 61 1012.4
20260507045047 36 191 1.7 4.3 0.00 0.00 0.00 60 1012.5
20260507044558 36 199 2.6 5.2 0.00 0.00 0.00 60 1012.6
20260507044045 36 209 3.5 5.2 0.00 0.00 0.00 61 1012.7
20260507043544 36 202 1.7 5.2 0.00 0.00 0.00 61 1012.8
20260507043048 36 177 0.9 3.5 0.00 0.00 0.00 60 1012.7
20260507042545 36 177 0.9 3.5 0.00 0.00 0.00 60 1012.7
20260507042046 36 178 0.9 3.5 0.00 0.00 0.00 59 1012.7
20260507041547 37 182 1.7 3.5 0.00 0.00 0.00 59 1012.8
20260507041045 37 194 0.9 3.5 0.00 0.00 0.00 59 1012.9
20260507040542 37 195 0.9 3.5 0.00 0.00 0.00 58 1013.0
20260507040045 37 190 0.9 4.3 0.00 0.00 0.00 57 1013.1
20260507035541 38 188 1.7 4.3 0.00 0.00 0.00 57 1013.1
20260507035041 38 180 0.9 4.3 0.00 0.00 0.00 57 1013.2
20260507034544 38 175 1.7 4.3 0.00 0.00 0.00 57 1013.2
20260507034039 38 175 0.0 3.5 0.00 0.00 0.00 57 1013.3
20260507033539 38 171 0.9 4.3 0.00 0.00 0.00 57 1013.3
20260507033050 38 184 0.9 4.3 0.00 0.00 0.00 57 1013.3
20260507032539 37 179 0.9 5.2 0.00 0.00 0.00 57 1013.4
20260507032041 38 191 0.9 4.3 0.00 0.00 0.00 57 1013.4
20260507031553 38 190 0.0 4.3 0.00 0.00 0.00 56 1013.4
20260507031041 38 177 1.7 4.3 0.00 0.00 0.00 56 1013.5
20260507030538 38 192 0.9 2.6 0.00 0.00 0.00 56 1013.5
20260507030051 38 193 0.0 3.5 0.00 0.00 0.00 56 1013.5
20260507025536 38 194 0.9 3.5 0.00 0.00 0.00 56 1013.6